Location: Haliburton Scout Reserve
(45.0900°N, 78.3200°W)
Time: 19:58:25
(UTC-04:00)

STRAND 1 - Pass Details

Date: 02 April 2023
Orbit: 767 x 779 km, 98.4° (Epoch: 06 June)

Event Time Altitude Azimuth Distance (km) Brightness Sun altitude
Rises 05:16:36 0° 106° (ESE) 3,247 ? -17.0°
Reaches altitude 10° 05:20:29 10° 77° (ENE) 2,323 ? -16.4°
Maximum altitude 05:22:17 12° 55° (NE) 2,192 ? -16.1°
Drops below altitude 10° 05:24:07 10° 34° (NE) 2,325 ? -15.8°
Sets 05:27:58 0° 5° (N) 3,255 ? -15.2°
